�������l�o���
Date,Time,MP-1(��Sv/h),MP-2(��Sv/h),MP-3(��Sv/h),MP-4(��Sv/h),MP-5(��Sv/h),MP-6(��Sv/h),MP-7(��Sv/h),MP-8(��Sv/h),����,����(m/s),���J
2018/04/11,00:00,0.874,1.457,0.905,1.685,1.168,0.487,0.856,0.819,��,9.3,��
2018/04/11,00:10,0.872,1.460,0.908,1.686,1.167,0.486,0.856,0.818,��,9.1,��
2018/04/11,00:20,0.872,1.457,0.909,1.687,1.168,0.488,0.857,0.819,��,9.1,��
2018/04/11,00:30,0.871,1.454,0.907,1.686,1.167,0.489,0.857,0.820,��,6.4,��
2018/04/11,00:40,0.871,1.455,0.905,1.686,1.165,0.489,0.857,0.820,��,8.0,��
2018/04/11,00:50,0.870,1.457,0.906,1.684,1.167,0.487,0.857,0.820,��,8.0,��
2018/04/11,01:00,0.871,1.459,0.907,1.684,1.167,0.488,0.857,0.818,��,8.3,��
2018/04/11,01:10,0.871,1.458,0.907,1.685,1.168,0.487,0.856,0.821,��,9.6,��
2018/04/11,01:20,0.872,1.456,0.908,1.688,1.168,0.488,0.856,0.820,��,7.2,��
2018/04/11,01:30,0.871,1.459,0.908,1.686,1.168,0.489,0.858,0.821,��,8.7,��
2018/04/11,01:40,0.873,1.457,0.907,1.686,1.166,0.488,0.856,0.818,��,10.0,��
2018/04/11,01:50,0.871,1.458,0.908,1.685,1.165,0.487,0.857,0.821,��,10.3,��
2018/04/11,02:00,0.872,1.458,0.907,1.687,1.167,0.487,0.857,0.821,��,10.2,��
2018/04/11,02:10,0.873,1.458,0.909,1.686,1.167,0.489,0.855,0.821,��,10.5,��
2018/04/11,02:20,0.872,1.459,0.908,1.686,1.168,0.488,0.857,0.820,��,10.9,��
2018/04/11,02:30,0.874,1.458,0.908,1.685,1.168,0.487,0.857,0.820,��,10.0,��
2018/04/11,02:40,0.874,1.455,0.909,1.684,1.167,0.489,0.856,0.820,��,9.2,��
2018/04/11,02:50,0.872,1.458,0.908,1.687,1.167,0.488,0.854,0.821,��,9.8,��
2018/04/11,03:00,0.871,1.458,0.908,1.686,1.167,0.486,0.857,0.820,��,9.1,��
2018/04/11,03:10,0.873,1.457,0.908,1.687,1.169,0.486,0.857,0.821,��,9.2,��
2018/04/11,03:20,0.874,1.456,0.907,1.686,1.168,0.488,0.855,0.820,��,9.4,��
2018/04/11,03:30,0.873,1.458,0.908,1.685,1.166,0.486,0.857,0.820,��,8.7,��
2018/04/11,03:40,0.872,1.459,0.908,1.687,1.164,0.487,0.856,0.819,��,8.3,��
2018/04/11,03:50,0.872,1.454,0.908,1.685,1.167,0.490,0.856,0.821,��,8.3,��
2018/04/11,04:00,0.873,1.453,0.907,1.685,1.168,0.488,0.857,0.820,��쓌,8.6,��
2018/04/11,04:10,0.872,1.458,0.906,1.685,1.165,0.486,0.857,0.820,��쓌,8.6,��
2018/04/11,04:20,0.873,1.458,0.907,1.687,1.166,0.486,0.858,0.820,��쓌,7.5,��
2018/04/11,04:30,0.872,1.457,0.908,1.688,1.167,0.487,0.856,0.821,��쓌,7.6,��
2018/04/11,04:40,0.872,1.458,0.907,1.686,1.166,0.488,0.856,0.821,��쓌,7.0,��
2018/04/11,04:50,0.873,1.458,0.907,1.684,1.168,0.489,0.856,0.821,��쓌,6.6,��
2018/04/11,05:00,0.872,1.458,0.907,1.684,1.166,0.487,0.858,0.821,��,5.9,��
2018/04/11,05:10,0.872,1.458,0.908,1.682,1.168,0.490,0.858,0.821,��쓌,7.0,��
2018/04/11,05:20,0.873,1.457,0.907,1.686,1.167,0.488,0.860,0.820,��,6.8,��
2018/04/11,05:30,0.871,1.459,0.907,1.684,1.169,0.488,0.857,0.820,��,7.0,��
2018/04/11,05:40,0.874,1.458,0.909,1.686,1.168,0.487,0.857,0.820,��,6.5,��
2018/04/11,05:50,0.873,1.456,0.907,1.685,1.169,0.490,0.856,0.822,��쐼,6.0,��
2018/04/11,06:00,0.871,1.462,0.908,1.686,1.166,0.487,0.859,0.820,��,5.9,��
2018/04/11,06:10,0.872,1.456,0.906,1.685,1.166,0.487,0.858,0.820,��쐼,8.2,��
2018/04/11,06:20,0.873,1.458,0.908,1.684,1.167,0.489,0.858,0.824,��쐼,7.0,��
2018/04/11,06:30,0.873,1.459,0.909,1.683,1.168,0.487,0.857,0.821,��쐼,8.2,��
2018/04/11,06:40,0.874,1.458,0.910,1.687,1.168,0.487,0.858,0.821,��쐼,7.7,��
2018/04/11,06:50,0.875,1.459,0.908,1.685,1.167,0.488,0.857,0.819,��쐼,8.8,��
2018/04/11,07:00,0.872,1.459,0.910,1.685,1.168,0.489,0.857,0.821,��쐼,8.8,��
2018/04/11,07:10,0.875,1.460,0.908,1.687,1.169,0.489,0.859,0.823,��,8.8,��
2018/04/11,07:20,0.873,1.460,0.910,1.683,1.168,0.490,0.857,0.822,��,9.3,��
2018/04/11,07:30,0.875,1.456,0.907,1.683,1.168,0.489,0.858,0.820,��,9.2,��
2018/04/11,07:40,0.876,1.458,0.908,1.688,1.167,0.488,0.857,0.821,��,7.8,��
2018/04/11,07:50,0.874,1.458,0.910,1.684,1.168,0.485,0.857,0.821,��,8.3,��
2018/04/11,08:00,0.876,1.458,0.908,1.683,1.166,0.489,0.858,0.822,��,7.4,��
2018/04/11,08:10,0.874,1.457,0.909,1.685,1.167,0.489,0.856,0.822,��쐼,6.3,��
2018/04/11,08:20,0.875,1.460,0.910,1.683,1.169,0.488,0.856,0.823,��쐼,8.3,��
2018/04/11,08:30,0.877,1.460,0.910,1.684,1.166,0.488,0.857,0.823,��쐼,7.6,��
2018/04/11,08:40,0.874,1.454,0.909,1.686,1.166,0.488,0.859,0.821,��쐼,10.5,��
2018/04/11,08:50,0.875,1.457,0.910,1.686,1.169,0.489,0.858,0.822,��쐼,9.8,��
2018/04/11,09:00,0.875,1.454,0.907,1.685,1.167,0.485,0.859,0.820,��쐼,9.9,��
2018/04/11,09:10,0.874,1.455,0.906,1.689,1.166,0.488,0.857,0.819,��쐼,9.2,��
2018/04/11,09:20,0.873,1.455,0.907,1.686,1.165,0.489,0.859,0.819,��,7.8,��
2018/04/11,09:30,0.874,1.456,0.909,1.688,1.167,0.488,0.858,0.819,��,7.4,��
2018/04/11,09:40,0.872,1.454,0.906,1.690,1.167,0.486,0.859,0.821,��,9.6,��
2018/04/11,09:50,0.874,1.456,0.907,1.687,1.166,0.488,0.856,0.819,��,8.4,��
2018/04/11,10:00,0.873,1.454,0.908,1.689,1.167,0.487,0.858,0.820,��,8.5,��
2018/04/11,10:10,0.874,1.454,0.909,1.689,1.168,0.488,0.858,0.819,��,10.2,��
2018/04/11,10:20,0.873,1.458,0.905,1.682,1.165,0.488,0.858,0.819,��,11.3,��
2018/04/11,10:30,0.874,1.454,0.907,1.689,1.167,0.488,0.856,0.819,��,12.2,��
2018/04/11,10:40,0.874,1.453,0.908,1.688,1.166,0.488,0.857,0.819,��,12.7,��
2018/04/11,10:50,0.877,1.454,0.908,1.686,1.166,0.488,0.858,0.817,��,11.0,��
2018/04/11,11:00,0.875,1.456,0.908,1.688,1.169,0.488,0.858,0.819,��,9.1,��
2018/04/11,11:10,0.874,1.454,0.908,1.691,1.167,0.488,0.857,0.820,��,11.3,��
2018/04/11,11:20,0.876,1.458,0.907,1.684,1.168,0.486,0.859,0.818,��,12.1,��
2018/04/11,11:30,0.875,1.459,0.907,1.686,1.168,0.488,0.858,0.820,��,10.3,��
2018/04/11,11:40,0.876,1.456,0.907,1.688,1.167,0.488,0.858,0.820,��,9.9,��
2018/04/11,11:50,0.875,1.458,0.907,1.688,1.169,0.488,0.857,0.820,��,9.1,��
2018/04/11,12:00,0.874,1.462,0.910,1.692,1.166,0.489,0.859,0.822,��,8.5,�L
2018/04/11,12:10,0.873,1.455,0.907,1.688,1.169,0.488,0.858,0.821,��,7.1,�L
2018/04/11,12:20,0.875,1.458,0.907,1.689,1.169,0.486,0.858,0.821,��,5.9,��
2018/04/11,12:30,0.876,1.458,0.908,1.689,1.166,0.489,0.861,0.820,��,7.1,��
2018/04/11,12:40,0.875,1.457,0.910,1.691,1.171,0.489,0.860,0.819,��,7.7,��
2018/04/11,12:50,0.877,1.456,0.910,1.689,1.170,0.490,0.859,0.820,��,5.2,��
2018/04/11,13:00,0.876,1.457,0.910,1.692,1.169,0.490,0.859,0.820,��쐼,6.7,��
2018/04/11,13:10,0.877,1.460,0.909,1.689,1.170,0.489,0.858,0.821,��,5.8,��
2018/04/11,13:20,0.875,1.457,0.909,1.690,1.169,0.490,0.859,0.822,��,6.3,��
2018/04/11,13:30,0.876,1.459,0.910,1.691,1.172,0.489,0.859,0.819,��쓌,8.5,��
2018/04/11,13:40,0.879,1.457,0.910,1.690,1.170,0.489,0.860,0.820,��,7.6,��
2018/04/11,13:50,0.878,1.460,0.910,1.688,1.169,0.489,0.860,0.821,��,6.1,��
2018/04/11,14:00,0.876,1.459,0.910,1.689,1.170,0.490,0.861,0.820,��,6.9,��
2018/04/11,14:10,0.878,1.460,0.910,1.691,1.172,0.490,0.859,0.822,��,7.0,��
2018/04/11,14:20,0.878,1.457,0.911,1.689,1.170,0.489,0.860,0.821,��,7.7,��
2018/04/11,14:30,0.879,1.458,0.911,1.693,1.174,0.490,0.864,0.821,��쐼,8.3,��
2018/04/11,14:40,0.879,1.456,0.912,1.694,1.172,0.491,0.863,0.821,��쐼,7.9,��
2018/04/11,14:50,0.879,1.465,0.911,1.689,1.172,0.492,0.862,0.820,��쐼,8.9,��
2018/04/11,15:00,0.881,1.462,0.912,1.689,1.171,0.490,0.863,0.821,��쐼,8.2,��
2018/04/11,15:10,0.880,1.461,0.912,1.692,1.171,0.491,0.862,0.822,��쐼,8.3,��
2018/04/11,15:20,0.882,1.462,0.911,1.689,1.174,0.491,0.861,0.824,��쐼,8.1,��
2018/04/11,15:30,0.881,1.461,0.912,1.689,1.174,0.491,0.862,0.821,�쐼,7.6,��
2018/04/11,15:40,0.881,1.462,0.913,1.690,1.173,0.491,0.862,0.821,�쐼,7.4,��
2018/04/11,15:50,0.881,1.461,0.912,1.691,1.174,0.490,0.862,0.821,��쐼,9.1,��
2018/04/11,16:00,0.881,1.461,0.913,1.688,1.173,0.491,0.861,0.821,��쐼,7.3,��
2018/04/11,16:10,0.883,1.461,0.912,1.690,1.171,0.491,0.862,0.822,�쐼,7.0,��
2018/04/11,16:20,0.883,1.460,0.911,1.693,1.172,0.491,0.861,0.823,��쐼,7.0,��
2018/04/11,16:30,0.886,1.461,0.911,1.691,1.170,0.491,0.862,0.821,��쐼,6.3,��
2018/04/11,16:40,0.883,1.461,0.912,1.691,1.171,0.491,0.862,0.822,��쐼,4.1,��
2018/04/11,16:50,0.882,1.458,0.913,1.694,1.172,0.490,0.862,0.821,��,4.6,��
2018/04/11,17:00,0.882,1.461,0.912,1.691,1.174,0.489,0.862,0.821,��,5.7,��
2018/04/11,17:10,0.882,1.462,0.914,1.693,1.171,0.492,0.861,0.821,��쐼,4.8,�L
2018/04/11,17:20,0.880,1.462,0.911,1.694,1.171,0.489,0.862,0.824,��쐼,3.3,��
2018/04/11,17:30,0.879,1.463,0.912,1.696,1.173,0.491,0.861,0.823,���쐼,2.3,�L
2018/04/11,17:40,0.881,1.464,0.914,1.697,1.172,0.491,0.862,0.821,���k��,4.8,�L
2018/04/11,17:50,0.881,1.462,0.913,1.697,1.173,0.490,0.862,0.822,��,5.8,�L
2018/04/11,18:00,0.881,1.464,0.913,1.697,1.174,0.490,0.861,0.822,��,5.0,��
2018/04/11,18:10,0.880,1.467,0.915,1.698,1.173,0.491,0.859,0.821,��,4.2,��
2018/04/11,18:20,0.883,1.464,0.915,1.696,1.174,0.491,0.859,0.823,��,2.8,��
2018/04/11,18:30,0.883,1.463,0.915,1.698,1.173,0.493,0.859,0.822,��쐼,4.0,�L
2018/04/11,18:40,0.883,1.465,0.913,1.697,1.174,0.491,0.860,0.821,��쐼,5.1,��
2018/04/11,18:50,0.884,1.466,0.915,1.696,1.176,0.491,0.861,0.823,�쐼,6.9,��
2018/04/11,19:00,0.883,1.465,0.915,1.694,1.176,0.491,0.860,0.826,��쐼,6.3,��
2018/04/11,19:10,0.885,1.466,0.913,1.695,1.175,0.498,0.861,0.825,��쐼,5.2,�L
2018/04/11,19:20,0.886,1.465,0.915,1.696,1.175,0.493,0.863,0.824,��쐼,3.7,�L
2018/04/11,19:30,0.883,1.466,0.915,1.695,1.177,0.492,0.863,0.826,�쐼,4.2,�L
2018/04/11,19:40,0.885,1.463,0.914,1.696,1.175,0.492,0.862,0.825,���쐼,3.2,��
2018/04/11,19:50,0.881,1.465,0.914,1.697,1.174,0.490,0.863,0.824,���쐼,3.3,��
2018/04/11,20:00,0.884,1.465,0.915,1.695,1.176,0.490,0.862,0.823,���쐼,3.9,��
2018/04/11,20:10,0.881,1.464,0.917,1.695,1.174,0.491,0.862,0.823,���쐼,4.9,��
2018/04/11,20:20,0.882,1.465,0.913,1.697,1.172,0.490,0.862,0.826,���k��,5.3,��
2018/04/11,20:30,0.881,1.464,0.914,1.696,1.174,0.491,0.861,0.823,�k��,4.3,��
2018/04/11,20:40,0.882,1.465,0.916,1.695,1.171,0.491,0.861,0.824,�k��,4.8,��
2018/04/11,20:50,0.883,1.467,0.915,1.696,1.173,0.491,0.860,0.823,�k��,6.5,��
2018/04/11,21:00,0.881,1.464,0.916,1.695,1.173,0.491,0.859,0.824,�k��,5.6,��
2018/04/11,21:10,0.880,1.464,0.914,1.693,1.171,0.491,0.860,0.824,�k��,4.8,��
2018/04/11,21:20,0.883,1.464,0.913,1.693,1.174,0.492,0.861,0.823,���k��,4.0,��
2018/04/11,21:30,0.884,1.462,0.913,1.697,1.173,0.492,0.861,0.823,��,5.1,��
2018/04/11,21:40,0.881,1.463,0.914,1.696,1.175,0.490,0.858,0.823,���쐼,5.9,�L
2018/04/11,21:50,0.877,1.455,0.911,1.690,1.165,0.492,0.859,0.823,��쐼,5.1,�L
2018/04/11,22:00,0.876,1.453,0.907,1.691,1.161,0.491,0.857,0.824,��쐼,5.0,�L
2018/04/11,22:10,0.875,1.455,0.908,1.687,1.163,0.492,0.857,0.823,��,2.3,�L
2018/04/11,22:20,0.875,1.454,0.910,1.689,1.161,0.490,0.857,0.824,��,2.8,�L
2018/04/11,22:30,0.875,1.451,0.909,1.687,1.162,0.490,0.858,0.822,�쐼,1.9,�L
2018/04/11,22:40,0.876,1.450,0.910,1.684,1.162,0.490,0.859,0.823,��,2.2,�L
2018/04/11,22:50,0.875,1.451,0.909,1.688,1.161,0.491,0.858,0.823,��쐼,3.0,�L
2018/04/11,23:00,0.874,1.450,0.909,1.686,1.160,0.490,0.859,0.824,���쐼,1.5,��
2018/04/11,23:10,0.873,1.450,0.908,1.687,1.163,0.489,0.859,0.823,-,CALM,��
2018/04/11,23:20,0.875,1.448,0.908,1.686,1.162,0.490,0.861,0.824,���쓌,2.3,��
2018/04/11,23:30,0.873,1.451,0.908,1.689,1.164,0.490,0.859,0.824,��쓌,1.7,��
2018/04/11,23:40,0.871,1.450,0.908,1.687,1.163,0.490,0.861,0.822,��쓌,1.7,��
2018/04/11,23:50,0.873,1.449,0.910,1.686,1.165,0.489,0.860,0.825,��,1.2,�L
